Hourly Data Report for October 16, 2005

TORONTO CITY
ONTARIO

43°40'00.000" N
79°24'00.000" W
112.50 m
6158355
71508
XTO

Download Data

Hourly Data (October 2005)
Hourly Data Report for October 16, 2005
TIME
LST
Temp Definition
°C
Dew Point Definition
°C
Rel Hum Definition
%
Precip. Amount Definition
mm

Wind Dir Definition
10's deg

Wind Spd Definition
km/h
Visibility Definition
km
Stn Press Definition
kPa
Hmdx Definition


Wind Chill Definition


Weather Definition


00:00 10.8 7.6 81   LegendMM LegendMM   99.31     LegendNANA
01:00 11.1 7.7 80   LegendMM LegendMM   99.30     LegendNANA
02:00 11.3 7.9 80   LegendMM LegendMM   99.31     LegendNANA
03:00 11.4 7.7 78   LegendMM LegendMM   99.32     LegendNANA
04:00 11.5 7.7 77   LegendMM LegendMM   99.37     LegendNANA
05:00 11.1 7.8 80   LegendMM LegendMM   99.40     LegendNANA
06:00 10.8 8.5 86   LegendMM LegendMM   99.47     LegendNANA
07:00 11.3 8.3 82   LegendMM LegendMM   99.51     LegendNANA
08:00 11.4 8.0 80   LegendMM LegendMM   99.56     LegendNANA
09:00 11.5 7.1 74   LegendMM LegendMM   99.62     LegendNANA
10:00 11.7 6.2 69   LegendMM LegendMM   99.68     LegendNANA
11:00 12.1 6.2 67   LegendMM LegendMM   99.70     LegendNANA
12:00 12.3 6.8 69   LegendMM LegendMM   99.68     LegendNANA
13:00 12.2 6.6 69   LegendMM LegendMM   99.67     LegendNANA
14:00 12.0 6.8 70   LegendMM LegendMM   99.69     LegendNANA
15:00 11.8 6.4 69   LegendMM LegendMM   99.73     LegendNANA
16:00 11.2 6.4 72   LegendMM LegendMM   99.77     LegendNANA
17:00 11.0 6.0 71   LegendMM LegendMM   99.79     LegendNANA
18:00 10.7 6.0 73   LegendMM LegendMM   99.80     LegendNANA
19:00 10.7 6.1 73   LegendMM LegendMM   99.83     LegendNANA
20:00 10.4 6.1 75   LegendMM LegendMM   99.83     LegendNANA
21:00 10.5 6.0 74   LegendMM LegendMM   99.81     LegendNANA
22:00 10.6 5.8 72   LegendMM LegendMM   99.85     LegendNANA
23:00 10.4 6.5 77   LegendMM LegendMM   99.84     LegendNANA

Notes on Data Quality.

Legend

  • E = Estimated
  • M = Missing
  • NA = Not Available*
  • [empty] = Indicates an unobserved value
Date modified: